Location: Ciserano
(45.5833°N, 9.6000°E)
Time: 11:45:24
(UTC+00:00)

Cosmos 1943 - Pass Details

Date: 29 November 2020
Orbit: 832 x 851 km, 71.0° (Epoch: 25 January)

Event Time Altitude Azimuth Distance (km) Brightness Sun altitude
Exits shadow 03:36:47 48° 147° (SSE) 1,103 3.9 -31.3°
Drops below altitude 10° 03:40:47 10° 153° (SSE) 2,470 5.9 -30.6°
Sets 03:43:13 0° 154° (SSE) 3,400 6.7 -30.2°
